Time,TemperatureF,DewpointF,PressureIn,WindDirection,WindDirectionDegrees,WindSpeedMPH,WindSpeedGustMPH,Humidity,HourlyPrecipIn,Conditions,Clouds,dailyrainin,SoftwareType,DateUTC
2013-01-09 00:01:00,21.3,18.8,30.43,ESE,122,0.0,1.0,90,0.00,,---,0.00,VWS V14.01,2013-01-09 05:01:00,
2013-01-09 01:01:00,19.9,17.5,30.41,ESE,123,0.0,0.0,90,0.00,,---,0.00,VWS V14.01,2013-01-09 06:01:00,
2013-01-09 02:01:00,19.2,16.8,30.42,SE,124,0.0,0.0,90,0.00,,---,0.00,VWS V14.01,2013-01-09 07:01:00,
2013-01-09 03:01:00,18.4,15.7,30.42,SE,129,0.0,2.0,89,0.00,,---,0.00,VWS V14.01,2013-01-09 08:01:00,
2013-01-09 04:01:00,17.8,15.9,30.39,SE,129,0.0,1.0,92,0.00,,---,0.00,VWS V14.01,2013-01-09 09:01:00,
2013-01-09 05:01:00,16.1,13.9,30.38,SE,129,0.0,0.0,91,0.00,,---,0.00,VWS V14.01,2013-01-09 10:01:00,
2013-01-09 06:01:00,16.2,14.3,30.38,SE,129,0.0,0.0,92,0.00,,---,0.00,VWS V14.01,2013-01-09 11:01:00,
2013-01-09 07:01:00,18.5,16.6,30.36,SE,129,0.0,1.0,92,0.00,,---,0.00,VWS V14.01,2013-01-09 12:01:00,
2013-01-09 08:01:00,24.7,21.7,30.34,SSE,160,0.0,4.0,88,0.00,,---,0.00,VWS V14.01,2013-01-09 13:01:00,
2013-01-09 09:01:00,27.4,23.2,30.30,SW,226,1.0,7.0,84,0.00,,---,0.00,VWS V14.01,2013-01-09 14:01:00,
2013-01-09 10:01:00,33.7,26.6,30.29,SSW,204,3.0,9.0,75,0.00,,---,0.00,VWS V14.01,2013-01-09 15:01:00,
2013-01-09 11:01:00,34.9,27.8,30.27,SSW,197,7.0,7.0,75,0.00,,---,0.00,VWS V14.01,2013-01-09 16:01:00,
2013-01-09 12:01:00,40.0,29.6,30.19,West,272,2.0,13.0,66,0.00,,---,0.00,VWS V14.01,2013-01-09 17:01:00,
2013-01-09 13:01:00,41.6,31.5,30.12,SSE,166,3.0,11.0,67,0.00,,---,0.00,VWS V14.01,2013-01-09 18:01:00,
2013-01-09 14:01:00,43.3,32.3,30.10,WSW,256,2.0,14.0,65,0.00,,---,0.00,VWS V14.01,2013-01-09 19:01:00,
2013-01-09 15:01:00,46.3,34.4,30.09,SW,214,3.0,16.0,63,0.00,,---,0.00,VWS V14.01,2013-01-09 20:01:00,
2013-01-09 16:01:00,47.6,35.2,30.10,SE,124,2.0,13.0,62,0.00,,---,0.00,VWS V14.01,2013-01-09 21:01:00,
2013-01-09 17:01:00,46.1,31.7,30.14,SW,229,1.0,12.0,57,0.00,,---,0.00,VWS V14.01,2013-01-09 22:01:00,
2013-01-09 18:01:00,45.0,28.9,30.18,WNW,287,4.0,20.0,53,0.00,,---,0.00,VWS V14.01,2013-01-09 23:01:00,
2013-01-09 19:01:00,42.1,25.8,30.21,ESE,121,1.0,9.0,52,0.00,,---,0.00,VWS V14.01,2013-01-10 00:01:00,
2013-01-09 20:01:00,42.1,24.3,30.23,SW,229,2.0,9.0,49,0.00,,---,0.00,VWS V14.01,2013-01-10 01:01:00,
2013-01-09 21:01:00,42.4,27.4,30.27,NW,326,4.0,19.0,55,0.00,,---,0.00,VWS V14.01,2013-01-10 02:01:00,
2013-01-09 22:01:00,41.8,29.0,30.32,NW,321,5.0,20.0,60,0.00,,---,0.00,VWS V14.01,2013-01-10 03:01:00,
2013-01-09 23:01:00,40.1,28.9,30.36,NE,56,5.0,24.0,64,0.00,,---,0.00,VWS V14.01,2013-01-10 04:01:00,